Location: Newark
(12.4436°N, 0.6167°W)
Time: 02:16:23
(UTC+00:00)

Transit 2A - Pass Details

Date: 12 December 2019
Orbit: 601 x 958 km, 66.7° (Epoch: 23 January)

Event Time Altitude Azimuth Distance (km) Brightness Sun altitude
Rises 05:29:33 0° 204° (SSW) 3,347 9.3 -10.8°
Reaches altitude 10° 05:32:07 10° 206° (SSW) 2,357 8.5 -10.2°
Maximum altitude 05:37:28 72° 290° (WNW) 770 5.9 -9.0°
Drops below altitude 10° 05:42:17 10° 15° (NNE) 2,126 8.2 -7.9°
Sets 05:44:30 0° 17° (NNE) 2,994 9.0 -7.4°
